Salt Lake City, UT

5:56 PM MDT on April 29, 2017 (GMT -0600)
Salt Lake City International

Weather History for KSLC - February, 2014

Change the Weather History Date:

Sunday, February 2, 2014

  Actual Average Record
Temperature  
Mean Temperature 32 °F 31 °F  
Max Temperature 37 °F 39 °F 58 °F (1995)
Min Temperature 26 °F 22 °F -4 °F (1949)
Degree Days  
Heating Degree Days 33 34  
Month to date heating degree days 66 68  
Since 1 July heating degree days 3420 3462  
Cooling Degree Days 0 0  
Month to date cooling degree days 0 0  
Year to date cooling degree days 0 0  
Moisture  
Dew Point 19 °F    
Average Humidity 59    
Maximum Humidity 78    
Minimum Humidity 40    
Precipitation  
Precipitation 0.00 in 0.04 in 0.89 in (1936)
Month to date precipitation T 0.08  
Year to date precipitation 1.20 1.33  
Snow  
Snow 0.00 in 0.40 in 5.00 in (1936)
Month to date snowfall 0.0 0.8  
Since 1 July snowfall 32.8 35.5  
Snow Depth T in    
Sea Level Pressure  
Sea Level Pressure 30.03 in    
Wind  
Wind Speed 9 mph (South)    
Max Wind Speed 21 mph    
Max Gust Speed 24 mph    
Visibility 10 miles    
Events      
T = Trace of Precipitation, MM = Missing Value Source: NWS Daily Summary

Daily Weather History Graph

Daily Weather History Graph

Search for Another Location

Airport or City:

Trip Planner

Search our weather history database for the weather conditions in past years. The results will help you decide how hot, cold, wet, or windy it might be!

Date:

Astronomy

Feb. 02, 2014 Rise Set
Actual Time 7:36 AM MST 5:46 PM MST
Civil Twilight 7:08 AM MST 6:15 PM MST
Nautical Twilight 6:35 AM MST 6:48 PM MST
Astronomical Twilight 6:03 AM MST 7:20 PM MST
Moon 9:04 AM MST (2/2) 9:36 PM MST (2/2)
Length of Visible Light 11h 07m
Length of Day
10h 09m
Waxing Crescent, 12% of the Moon is Illuminated
Feb 2
Waxing Crescent
Feb 6
First Quarter
Feb 14
Full
Feb 22
Last Quarter
Mar 1
New

Hourly Weather History & Observations

Time (MST) Temp. Windchill Dew Point Humidity Pressure Visibility Wind Dir Wind Speed Gust Speed Precip Events Conditions
12:53 AM 32.0 °F 26.4 °F 24.1 °F 73% 30.12 in 10.0 mi South 5.8 mph - N/A   Overcast
1:53 AM 32.0 °F 24.8 °F 25.0 °F 75% 30.10 in 10.0 mi SSE 8.1 mph - N/A   Overcast
2:53 AM 30.9 °F 22.2 °F 25.0 °F 79% 30.11 in 10.0 mi SSE 10.4 mph - N/A   Overcast
3:53 AM 30.9 °F 22.8 °F 24.1 °F 76% 30.10 in 10.0 mi SSE 9.2 mph - N/A   Overcast
4:53 AM 30.9 °F 22.8 °F 24.1 °F 76% 30.09 in 10.0 mi SSE 9.2 mph - N/A   Overcast
5:53 AM 30.9 °F 22.2 °F 24.1 °F 76% 30.09 in 10.0 mi SSE 10.4 mph - N/A   Overcast
6:53 AM 30.0 °F 21.1 °F 23.0 °F 75% 30.09 in 10.0 mi SSE 10.4 mph - N/A   Mostly Cloudy
7:53 AM 30.0 °F 21.7 °F 21.9 °F 72% 30.10 in 10.0 mi South 9.2 mph - N/A   Mostly Cloudy
8:53 AM 30.9 °F 21.7 °F 21.9 °F 69% 30.10 in 10.0 mi South 11.5 mph - N/A   Mostly Cloudy
9:53 AM 32.0 °F 22.1 °F 19.0 °F 59% 30.08 in 10.0 mi SSE 13.8 mph - N/A   Mostly Cloudy
10:53 AM 33.1 °F 24.4 °F 18.0 °F 54% 30.07 in 10.0 mi SSE 11.5 mph - N/A   Scattered Clouds
11:53 AM 34.0 °F 25.0 °F 19.0 °F 54% 30.06 in 10.0 mi SSE 12.7 mph - N/A   Partly Cloudy
12:53 PM 35.1 °F 26.9 °F 17.1 °F 48% 30.02 in 10.0 mi South 11.5 mph - N/A   Scattered Clouds
1:53 PM 36.0 °F 26.7 °F 15.1 °F 43% 29.99 in 10.0 mi South 15.0 mph - N/A   Partly Cloudy
2:53 PM 36.0 °F 26.3 °F 15.1 °F 43% 29.97 in 10.0 mi South 16.1 mph - N/A   Scattered Clouds
3:53 PM 36.0 °F 27.1 °F 14.0 °F 41% 29.95 in 10.0 mi SSW 13.8 mph - N/A   Scattered Clouds
4:53 PM 34.0 °F 25.5 °F 16.0 °F 48% 29.96 in 10.0 mi SSW 11.5 mph - N/A   Mostly Cloudy
5:53 PM 33.1 °F 25.5 °F 16.0 °F 50% 29.96 in 10.0 mi SW 9.2 mph - N/A   Mostly Cloudy
6:53 PM 30.9 °F 22.8 °F 17.1 °F 57% 29.96 in 10.0 mi West 9.2 mph - N/A   Scattered Clouds
7:53 PM 30.9 °F - 16.0 °F 54% 29.96 in 10.0 mi Calm Calm - N/A   Scattered Clouds
8:53 PM 30.0 °F 26.5 °F 16.0 °F 56% 29.95 in 10.0 mi SSE 3.5 mph - N/A   Scattered Clouds
9:53 PM 28.9 °F 25.2 °F 19.0 °F 67% 29.95 in 10.0 mi West 3.5 mph - N/A   Scattered Clouds
10:53 PM 28.0 °F - 19.0 °F 69% 29.96 in 10.0 mi Calm Calm - N/A   Partly Cloudy
11:53 PM 26.1 °F - 19.0 °F 75% 29.96 in 10.0 mi Calm Calm - N/A   Scattered Clouds